Regional Weather Roundup
Issued by NWS

Home | Current Version | Previous Version | Text Only | Print | Product List | Glossary On
Versions: 1 2 3 4 5 6 7 8 9 10 11 12 13 14 15 16 17 18 19 20 21 22 23 24 25 26 27 28 29 30 31 32 33 34 35 36 37 38 39 40 41 42 43 44 45 46 47 48 49 50
000
ASUS44 KMEG 060710
RWRTN
TENNESSEE HOURLY STATE WEATHER ROUNDUP
NATIONAL WEATHER SERVICE MEMPHIS TN
100 AM CST SAT FEB 06 2016

TNZ002-004-019-021-049-052-054-088>092-060800-
WEST TENNESSEE

CITY           SKY/WX    TMP DP  RH WIND       PRES   REMARKS
MEMPHIS INTL   MOCLDY    37  24  59 CALM      30.37F
NWS MEMPHIS      N/A     31 N/A N/A MISG        N/A
JACKSON        CLEAR     27  23  85 S3        30.37F
DYERSBURG      CLEAR     34  25  69 CALM      30.38S
UNION CITY     CLEAR     34  25  69 S3        30.34S
PARIS          CLEAR     30  19  64 S3        30.35F
LEXINGTON      CLEAR     27  23  86 CALM      30.36S
$$

TNZ008-025-027-028-033-062-065-066-060800-
NORTH MIDDLE TENNESSEE

CITY           SKY/WX    TMP DP  RH WIND       PRES   REMARKS
NASHVILLE      MOCLDY    33  22  63 S3        30.38S
CLARKSVILLE    CLEAR     31  25  78 CALM      30.36S
SMYRNA         PTCLDY    28  24  85 CALM      30.39F
COOKEVILLE     CLEAR     25  25 100 CALM      30.35F
CROSSVILLE     PTCLDY    30  17  58 CALM      30.34F
$$

TNZ061-075-076-078-094-096-097-060800-
SOUTH MIDDLE TENNESSEE

CITY           SKY/WX    TMP DP  RH WIND       PRES   REMARKS
FAYETTEVILLE   CLEAR     32  23  69 CALM      30.36S
TULLAHOMA      CLEAR     28  21  74 CALM      30.36S
WINCHESTER     CLEAR     28  21  74 CALM      30.37R
MCMINNVILLE    CLEAR     27  23  86 CALM      30.36F
COLUMBIA       CLEAR     30  30 100 CALM      30.36S
SHELBYVILLE    CLEAR     32  25  74 CALM      30.38S
$$

TNZ017-018-042-046-047-060800-
NORTHEAST TENNESSEE

CITY           SKY/WX    TMP DP  RH WIND       PRES   REMARKS
TRI CITIES     CLOUDY    24  21  88 CALM      30.37F
$$

TNZ012-013-036-069-073-074-060800-
CENTRAL EAST TENNESSEE

CITY           SKY/WX    TMP DP  RH WIND       PRES   REMARKS
KNOXVILLE      CLOUDY    30  22  72 CALM      30.38F
OAK RIDGE      PTCLDY    29  23  78 CALM      30.39F
GATLINBURG       N/A     25  18  74 CALM      30.38S
MORRISTOWN     SUNNY     28  21  74 CALM      30.35F
$$

TNZ083-085-099-060800-
SOUTHEAST TENNESSEE

CITY           SKY/WX    TMP DP  RH WIND       PRES   REMARKS
CHATTANOOGA    PTCLDY    31  25  78 W3        30.40S
$$

SKY/WX REPORTED AS FAIR MEANS FEW OR NO CLOUDS BELOW
12 THOUSAND FEET.




USA.gov is the U.S. government's official web portal to all federal, state and local government web resources and services.